Tracking 18851 objects as of 25-Nov-2017
HD Live streaming from Space Station
objects crossing your sky now

METEOR 2-5

Track METEOR 2-5 now!
10-day predictions
METEOR 2-5 is classified as:


NORAD ID: 11605
Int'l Code: 1979-095A
Perigee: 868.3 km
Apogee: 884.9 km
Inclination: 81.2 °
Period: 102.3 minutes
Semi major axis: 7247 km
RCS: 4.8636 m2 (large)
Launch date: October 31, 1979
Source: Commonwealth of Independent States (former USSR) (CIS)
Launch site: PLESETSK MISSILE AND SPACE COMPLEX (PKMTR)
aabbcc
Your satellite tracking list
Your tracking list is empty




NASA's NSSDC Master Catalog

Two Line Element Set (TLE):
1 11605U 79095A   17328.56587517 +.00000123 +00000-0 +66226-4 0  9990
2 11605 081.2123 031.8470 0011403 056.5623 303.6634 14.07059094953563
Source of the keplerian elements: AFSPC